Location: Unspecified
(0.0000°N, 0.0000°E)
Time: 22:54:58
(UTC+02:00)

X-37B - Visible Passes

Search period start: 12 June 2021 00:00
Search period end: 22 June 2021 00:00
Orbit: 386 x 389 km, 45.0° (Epoch: 10 June)

Date Brightness Start Highest point End Pass type
(mag) Time Alt. Az. Time Alt. Az. Time Alt. Az.
19 Jun 0.6 21:26:08 10° SW 21:29:19 79° NW 21:29:20 79° NW visible
20 Jun 1.4 20:28:07 10° SSW 20:31:00 31° SE 20:33:51 10° ENE visible
21 Jun 3.1 21:06:29 10° WSW 21:09:09 24° NW 21:11:48 10° N visible
